"Pseudo-MPEC" for P12oZGu

Created 2026 Aug 14 0:35:08 UT using Find_Orb

Click here for an explanation of pseudo-MPECs

 
 Astrometry: 
     P12oZGu*0C2026 08 08.59727523 11 24.900+31 00 00.67   ~88FZ 21.63wXNEOCPF51
     P12oZGu 0C2026 08 08.60351423 11 26.186+30 59 43.03   ~88FZ 21.28wXNEOCPF51
     P12oZGu 0C2026 08 08.60976723 11 27.540+30 59 24.58   ~88FZ 20.72wXNEOCPF51
     P12oZGu KB2026 08 08.88638923 12 32.933+30 46 03.65   ~898K 20.2 GXNEOCPL49
     P12oZGu KB2026 08 08.89675923 12 35.222+30 45 34.99   ~898K 20.6 GXNEOCPL49
     P12oZGu KB2026 08 08.90677123 12 37.414+30 45 06.77   ~898K 20.1 GXNEOCPL49
     P12oZGu KC2026 08 09.36796723 14 21.249+30 22 52.17   ~899o 21.8 GWNEOCPH01
     P12oZGu  C2026 08 09.37203923 14 22.135+30 22 39.87   ~899o 21.8 GWNEOCPH01
     P12oZGu KC2026 08 09.38627423 14 25.192+30 21 57.58   ~899o 21.9 GWNEOCPH01
     P12oZGu KC2026 08 09.39121423 14 26.247+30 21 42.67   ~899o 22.3 GWNEOCPH01
     P12oZGu KB2026 08 10.92253 23 20 29.44 +28 59 24.4    ~8AMo       XNEOCP106
     P12oZGu KB2026 08 10.92624 23 20 30.20 +28 59 11.5    ~8AMo       XNEOCP106
     P12oZGu KB2026 08 10.92980 23 20 31.03 +28 58 59.3    ~8AMo 20.6 RXNEOCP106
     P12oZGu KB2026 08 10.93358 23 20 31.95 +28 58 46.3    ~8AMo 20.4 RXNEOCP106
     P12oZGu KB2026 08 11.09048423 21 08.09 +28 49 44.2    ~8B2o 20.9 GVNEOCPL01
     P12oZGu KB2026 08 11.09685123 21 09.52 +28 49 21.7    ~8B2o 21.7 GVNEOCPL01
     P12oZGu KB2026 08 11.10302823 21 10.93 +28 48 59.6    ~8B2o 21.1 GVNEOCPL01
     P12oZGu 1C2026 08 12.08201023 25 14.128+27 49 04.70   ~8C7K 20.7 GXNEOCP033
     P12oZGu 1C2026 08 12.08348023 25 14.495+27 48 59.20   ~8C7K 20.3 GXNEOCP033
     P12oZGu 1C2026 08 12.08494023 25 14.837+27 48 53.60   ~8C7K 20.1 GXNEOCP033
     P12oZGu 1C2026 08 12.08640023 25 15.208+27 48 47.40   ~8C7K 20.5 GXNEOCP033

Station data:
(033) Karl Schwarzschild Observatory, Tautenburg  (N50.980139 E11.711240)
   Germany.  Observer B. Stecklum. 1.34-m f/3 Schmidt + CCD.
(106) Črni Vrh  (N45.945905 E14.071100)  Slovenia.  Observer J. Skvarč. 0.6-m
   f/3.3 Deltagraph + CCD.
(F51) Pan-STARRS 1, Haleakala  (N20.707234 W156.255910)  US/Hawaii.
   Observers J. Herman, T. Lowe, P. Minguez, A. Schultz, I. Smith. Measurers
   K. Chambers, T. de Boer, J. Fairlamb, H. Gao, M. Huber, C.-C. Lin, E.
   Magnier, Y. Ramanjooloo, R. Wainscoat, R. Weryk. 1.8-m Ritchey-Chrétien +
   CCD.
(H01) Magdalena Ridge Observatory, Socorro  (N33.984833 W107.189333)  US/New
   Mexico.  Observers W. H. Ryan, E. V. Ryan. Measurer W. H. Ryan. 2.4-m
   f/8.9 reflector + CCD.
(L01) Višnjan Observatory, Tičan  (N45.290897 E13.749300)  Croatia.
   Observers K. Korlević, L. Poropat. Measurer K. Korlevic. 1.0-m f/2.9
   reflector + CCD.
(L49) VEGA-Sternwarte, Dorfleiten  (N47.923896 E13.007300)  Austria.

Orbital elements:  P12oZGu
   Perihelion 2026 Oct 3.054510 +/- 0.239 TT =  1:18:29.6 (JD 2461316.554510)
Epoch 2026 Aug 12.0 TT = JDT 2461264.5   Earth MOID: 0.1085   Ma: 0.0050
M 329.619573211 +/- 0.33            (J2000 ecliptic)             AutoNEOCP
n   0.583627180 +/- 0.00372         Peri.  217.456569 +/- 0.22
a   1.418118022 +/- 0.00602         Node   155.572650 +/- 0.023
e   0.24049936 +/- 0.00273          Incl.   26.313133 +/- 0.12
P   1.689/616.820d         H 22.46  G  0.15   U  9.0
q 1.077061533 +/- 0.000726    Q 1.759174511 +/- 0.0113
From 21 observations 2026 Aug. 8-12; mean residual 0".26
Residuals in arcseconds: 
260808 F51  .06-  .18+    260809 H01  .03+  .12-    260811 L01  .23+  .04+    
260808 F51  .27-  .23+    260809 H01  .12+  .12+    260811 L01  .25-  .01+    
260808 F51  .33+  .45-    260809 H01  .07+  .01+    260811 L01  .45-  .26-    
260808 L49  .13-  .01-    260810 106  .94+  .35+    260812 033  .12-  .05+    
260808 L49  .05+  .25+    260810 106  .42-  .03+    260812 033  .07+  .20+    
260808 L49  .07+  .00     260810 106  .38-  .10-    260812 033  .04-  .23+    
260809 H01  .15-  .05+    260810 106  .17+  .26-    260812 033  .24+  .35-    

Ephemerides (geocentric):
Date (UTC) HH   RA             Dec           delta  r     elong  mag " sig PA
---- --------  ------------   ------------  ------ ------ -----  --- --------
2026 08 14 01  23 33 46.215   +25 32 23.43  .19357 1.1479 130.3 20.8 .666   8
2026 08 14 02  23 33 57.485   +25 29 12.56  .19329 1.1478 130.4 20.8 .687   8
2026 08 14 03  23 34 08.772   +25 26 00.98  .19301 1.1477 130.4 20.8 .708   8
2026 08 14 04  23 34 20.075   +25 22 48.70  .19273 1.1476 130.5 20.8 .730   8
2026 08 14 05  23 34 31.395   +25 19 35.70  .19245 1.1475 130.5 20.8 .751   8
2026 08 14 06  23 34 42.732   +25 16 21.99  .19217 1.1473 130.6 20.8 .774   7
2026 08 14 07  23 34 54.085   +25 13 07.56  .19189 1.1472 130.6 20.8 .796   7
2026 08 14 08  23 35 05.456   +25 09 52.41  .19161 1.1471 130.7 20.8 .819   7
2026 08 14 09  23 35 16.843   +25 06 36.54  .19133 1.1470 130.7 20.8 .842   7
2026 08 14 10  23 35 28.247   +25 03 19.94  .19105 1.1469 130.8 20.8 .866   7
2026 08 14 11  23 35 39.669   +25 00 02.62  .19078 1.1468 130.8 20.8 .890   7
2026 08 14 12  23 35 51.107   +24 56 44.57  .19050 1.1467 130.9 20.8 .914   7
2026 08 14 13  23 36 02.562   +24 53 25.79  .19022 1.1466 130.9 20.8 .938   7
2026 08 14 14  23 36 14.034   +24 50 06.28  .18994 1.1465 131.0 20.8 .963   6
2026 08 14 15  23 36 25.523   +24 46 46.03  .18967 1.1464 131.0 20.8 .989   6
2026 08 14 16  23 36 37.029   +24 43 25.04  .18939 1.1463 131.0 20.8 1.01   6
2026 08 14 17  23 36 48.553   +24 40 03.31  .18912 1.1461 131.1 20.8 1.04   6
2026 08 14 18  23 37 00.093   +24 36 40.84  .18884 1.1460 131.1 20.8 1.07   6
2026 08 14 19  23 37 11.651   +24 33 17.62  .18857 1.1459 131.2 20.8 1.09   6
2026 08 14 20  23 37 23.225   +24 29 53.66  .18829 1.1458 131.2 20.8 1.12   6
2026 08 14 21  23 37 34.818   +24 26 28.95  .18802 1.1457 131.3 20.8 1.15   6
2026 08 14 22  23 37 46.427   +24 23 03.49  .18774 1.1456 131.3 20.7 1.17   5
2026 08 14 23  23 37 58.053   +24 19 37.27  .18747 1.1455 131.4 20.7 1.20   5
2026 08 15 00  23 38 09.697   +24 16 10.30  .18720 1.1454 131.4 20.7 1.23   5
2026 08 15 01  23 38 21.359   +24 12 42.57  .18692 1.1453 131.5 20.7 1.26   5
2026 08 15 02  23 38 33.037   +24 09 14.07  .18665 1.1452 131.5 20.7 1.29   5
2026 08 15 03  23 38 44.733   +24 05 44.82  .18638 1.1451 131.6 20.7 1.32   5
2026 08 15 04  23 38 56.447   +24 02 14.79  .18611 1.1450 131.6 20.7 1.35   5
2026 08 15 05  23 39 08.177   +23 58 44.00  .18583 1.1449 131.7 20.7 1.38   5
2026 08 15 06  23 39 19.926   +23 55 12.44  .18556 1.1448 131.7 20.7 1.41   5
2026 08 15 07  23 39 31.692   +23 51 40.11  .18529 1.1446 131.8 20.7 1.44   5
2026 08 15 08  23 39 43.475   +23 48 07.00  .18502 1.1445 131.8 20.7 1.47   4
2026 08 15 09  23 39 55.276   +23 44 33.11  .18475 1.1444 131.9 20.7 1.50   4
2026 08 15 10  23 40 07.094   +23 40 58.45  .18448 1.1443 131.9 20.7 1.53   4
2026 08 15 11  23 40 18.931   +23 37 23.00  .18421 1.1442 132.0 20.7 1.57   4
2026 08 15 12  23 40 30.784   +23 33 46.77  .18394 1.1441 132.0 20.7 1.60   4
2026 08 15 13  23 40 42.656   +23 30 09.75  .18367 1.1440 132.1 20.7 1.63   4
2026 08 15 14  23 40 54.545   +23 26 31.94  .18341 1.1439 132.1 20.7 1.67   4
2026 08 15 15  23 41 06.452   +23 22 53.34  .18314 1.1438 132.2 20.7 1.70   4
2026 08 15 16  23 41 18.377   +23 19 13.95  .18287 1.1437 132.2 20.7 1.73   4
2026 08 15 17  23 41 30.319   +23 15 33.76  .18260 1.1436 132.3 20.7 1.77   4
2026 08 15 18  23 41 42.280   +23 11 52.78  .18234 1.1435 132.3 20.7 1.80   4
2026 08 15 19  23 41 54.258   +23 08 10.99  .18207 1.1434 132.4 20.7 1.84   4
2026 08 15 20  23 42 06.254   +23 04 28.40  .18180 1.1433 132.4 20.7 1.88   3
2026 08 15 21  23 42 18.268   +23 00 45.00  .18154 1.1431 132.5 20.6 1.91   3
2026 08 15 22  23 42 30.300   +22 57 00.79  .18127 1.1430 132.5 20.6 1.95   3
2026 08 15 23  23 42 42.349   +22 53 15.78  .18101 1.1429 132.6 20.6 1.99   3
2026 08 16 00  23 42 54.417   +22 49 29.95  .18074 1.1428 132.6 20.6 2.02   3